This demonstration page uses our WeatherBlox Daily Observations layout. Learn more.

Left ArrowRight Arrow

Hourly Observations for February 3, 2018

Temp ( °F °C ) Dew Point ( °F °C ) Humidity (%) Winds ( mph kmh ) Pressure ( in mb ) Visibility ( mi km ) Precip ( " mm )
12:15 am 00:15 Clear 18 -8 9 -13 68 68 W 3 6 30.5 1033 10 16.0934 0 0
12:35 am 00:35 Clear 18 -8 9 -13 68 68 Calm 30.5 1033 10 16.0934 0 0
12:55 am 00:55 Clear 18 -8 9 -13 68 68 W 6 9 30.5 1033 10 16.0934 0 0
1:15 am 01:15 Clear 14 -10 10 -12 85 85 W 7 11 30.5 1033 10 16.0934 0 0
1:35 am 01:35 Clear 18 -8 9 -13 68 68 WNW 6 9 30.5 1033 10 16.0934 0 0
1:55 am 01:55 Clear 18 -8 9 -13 68 68 WSW 3 6 30.5 1033 10 16.0934 0 0
2:15 am 02:15 Clear 19 -7 9 -13 63 63 Calm 30.53 1034 10 16.0934 0 0
2:35 am 02:35 Clear 18 -8 9 -13 68 68 Calm 30.53 1034 10 16.0934 0 0
2:55 am 02:55 Clear 18 -8 9 -13 68 68 W 3 6 30.5 1033 10 16.0934 0 0
3:15 am 03:15 Clear 18 -8 9 -13 68 68 W 5 7 30.53 1034 10 16.0934 0 0
3:35 am 03:35 Clear 18 -8 9 -13 68 68 W 3 6 30.53 1034 10 16.0934 0 0
3:55 am 03:55 Clear 16 -9 9 -13 73 73 W 3 6 30.53 1034 10 16.0934 0 0
4:15 am 04:15 Clear 16 -9 10 -12 79 79 WSW 3 6 30.53 1034 10 16.0934 0 0
4:35 am 04:35 Clear 16 -9 10 -12 79 79 Calm 30.53 1034 10 16.0934 0 0
4:55 am 04:55 Clear 14 -10 10 -12 85 85 SW 3 6 30.53 1034 10 16.0934 0 0
5:15 am 05:15 Clear 14 -10 10 -12 85 85 W 3 6 30.53 1034 10 16.0934 0 0
5:35 am 05:35 Clear 12 -11 10 -12 92 92 SSW 5 7 30.53 1034 10 16.0934 0 0
5:55 am 05:55 Clear 12 -11 9 -13 85 85 SSW 3 6 30.53 1034 10 16.0934 0 0
6:15 am 06:15 Clear 12 -11 9 -13 85 85 SW 5 7 30.56 1035 10 16.0934 0 0
6:35 am 06:35 Clear 12 -11 9 -13 85 85 WSW 3 6 30.56 1035 10 16.0934 0 0
6:55 am 06:55 Clear 12 -11 10 -12 92 92 W 3 6 30.56 1035 10 16.0934 0 0
7:15 am 07:15 Sunny 12 -11 10 -12 92 92 W 6 9 30.56 1035 10 16.0934 0 0
7:35 am 07:35 Sunny 12 -11 10 -12 92 92 SSW 5 7 30.56 1035 10 16.0934 0 0
7:55 am 07:55 Sunny 14 -10 10 -12 85 85 SW 6 9 30.56 1035 10 16.0934 0 0
8:15 am 08:15 Sunny 18 -8 10 -12 73 73 WSW 3 6 30.56 1035 10 16.0934 0 0
8:35 am 08:35 Sunny 19 -7 10 -12 68 68 WSW 5 7 30.56 1035 10 16.0934 0 0
8:55 am 08:55 Sunny 19 -7 10 -12 68 68 SW 5 7 30.56 1035 10 16.0934 0 0
9:15 am 09:15 Sunny 21 -6 12 -11 68 68 S 8 13 30.56 1035 10 16.0934 0 0
9:35 am 09:35 Sunny 23 -5 12 -11 63 63 SW 7 11 30.56 1035 10 16.0934 0 0
9:55 am 09:55 Sunny 27 -3 12 -11 54 54 SSW 6 9 30.53 1034 10 16.0934 0 0
10:15 am 10:15 Sunny 27 -3 12 -11 54 54 SW 10 17 30.53 1034 10 16.0934 0 0
10:35 am 10:35 Sunny 28 -2 10 -12 47 47 S 6 9 30.53 1034 10 16.0934 0 0
10:55 am 10:55 Sunny 28 -2 10 -12 47 47 SW 7 11 30.53 1034 10 16.0934 0 0
11:15 am 11:15 Sunny 30 -1 10 -12 43 43 SSW 7 11 30.53 1034 10 16.0934 0 0
11:35 am 11:35 Sunny 32 0 10 -12 40 40 SSW 12 19 30.5 1033 10 16.0934 0 0
11:55 am 11:55 Sunny 32 0 10 -12 40 40 SSE 9 15 30.48 1032 10 16.0934 0 0
12:15 pm 12:15 Sunny 32 0 10 -12 40 40 SSW 9 15 30.48 1032 10 16.0934 0 0
12:35 pm 12:35 Sunny 32 0 10 -12 40 40 SSW 9 15 30.48 1032 10 16.0934 0 0
12:55 pm 12:55 Sunny 32 0 10 -12 40 40 S 10 17 30.45 1031 10 16.0934 0 0
1:15 pm 13:15 Sunny 34 1 10 -12 38 38 S 9 15 30.45 1031 10 16.0934 0 0
1:35 pm 13:35 Sunny 34 1 10 -12 38 38 S 12 19 30.42 1030 10 16.0934 0 0
1:55 pm 13:55 Sunny 34 1 10 -12 38 38 SSE 7 11 30.42 1030 10 16.0934 0 0
2:15 pm 14:15 Sunny 34 1 12 -11 41 41 S 8 13 30.42 1030 10 16.0934 0 0
2:35 pm 14:35 Sunny 34 1 12 -11 41 41 S 13 20 30.42 1030 10 16.0934 0 0
2:55 pm 14:55 Sunny 36 2 12 -11 38 38 SSW 7 11 30.39 1029 10 16.0934 0 0
3:15 pm 15:15 Sunny 36 2 12 -11 38 38 SW 14 22 30.39 1029 10 16.0934 0 0
3:35 pm 15:35 Partly Cloudy 36 2 12 -11 38 38 S 14 22 30.39 1029 10 16.0934 0 0
3:55 pm 15:55 Cloudy 36 2 12 -11 38 38 SSW 12 19 30.39 1029 10 16.0934 0 0
4:15 pm 16:15 Cloudy 36 2 10 -12 35 35 SSW 13 20 30.39 1029 10 16.0934 0 0
4:35 pm 16:35 Mostly Cloudy 36 2 10 -12 35 35 SSW 12 19 30.39 1029 10 16.0934 0 0
4:55 pm 16:55 Partly Cloudy 34 1 10 -12 38 38 S 8 13 30.39 1029 10 16.0934 0 0
5:15 pm 17:15 Mostly Cloudy 34 1 12 -11 41 41 S 8 13 30.39 1029 10 16.0934 0 0
5:35 pm 17:35 Cloudy 34 1 10 -12 38 38 S 7 11 30.39 1029 10 16.0934 0 0
5:55 pm 17:55 Cloudy 34 1 10 -12 38 38 S 8 13 30.39 1029 10 16.0934 0 0
6:15 pm 18:15 Cloudy 34 1 10 -12 38 38 S 7 11 30.39 1029 10 16.0934 0 0
6:35 pm 18:35 Cloudy 34 1 12 -11 41 41 S 7 11 30.39 1029 10 16.0934 0 0
6:55 pm 18:55 Cloudy 34 1 12 -11 41 41 S 9 15 30.39 1029 10 16.0934 0 0
7:15 pm 19:15 Cloudy 34 1 12 -11 41 41 S 8 13 30.39 1029 10 16.0934 0 0
7:35 pm 19:35 Cloudy 34 1 12 -11 41 41 S 8 13 30.36 1028 10 16.0934 0 0
7:55 pm 19:55 Mostly Cloudy 34 1 12 -11 41 41 S 12 19 30.36 1028 10 16.0934 0 0
8:15 pm 20:15 Partly Cloudy 34 1 12 -11 41 41 S 10 17 30.36 1028 10 16.0934 0 0
8:35 pm 20:35 Clear 34 1 12 -11 41 41 S 10 17 30.36 1028 10 16.0934 0 0
8:55 pm 20:55 Clear 34 1 12 -11 41 41 S 12 19 30.36 1028 10 16.0934 0 0
9:15 pm 21:15 Clear 34 1 12 -11 41 41 S 13 20 30.36 1028 10 16.0934 0 0
9:35 pm 21:35 Partly Cloudy 34 1 12 -11 41 41 S 15 24 30.36 1028 10 16.0934 0 0
9:55 pm 21:55 Clear 34 1 12 -11 41 41 S 12 19 30.36 1028 10 16.0934 0 0
10:15 pm 22:15 Clear 34 1 12 -11 41 41 S 13 20 30.36 1028 10 16.0934 0 0
10:35 pm 22:35 Partly Cloudy 34 1 12 -11 41 41 S 12 19 30.33 1027 10 16.0934 0 0
10:55 pm 22:55 Mostly Cloudy 34 1 12 -11 41 41 S 12 19 30.33 1027 10 16.0934 0 0
11:15 pm 23:15 Cloudy 34 1 12 -11 41 41 S 12 19 30.33 1027 10 16.0934 0 0
11:35 pm 23:35 Cloudy 34 1 12 -11 41 41 S 9 15 30.33 1027 10 16.0934 0 0
11:55 pm 23:55 Cloudy 34 1 12 -11 41 41 SSW 10 17 30.33 1027 10 16.0934 0 0

Powered by AerisWeather